Voltar ao catálogo

STARLINK-11557

AtivoComunicaçõesVLEO
NORAD 62837·PAYLOAD·🇺🇸 United States

Lançado Jan 27, 2025 de Cape Canaveral Space Force Station

Loading…

Próximas Passagens (próximas 24 horas)

TLE

AtualizadoSource: CelesTrak SupGP

Época: Sep 14, 2026, 20:53 UTC

1 62837C 25019J   26257.87062500  .00026630  00000+0  20700-3 0  2578
2 62837  43.0004 245.5129 0001580 266.4080 165.3428 15.70806818    11

Acompanhe STARLINK-11557 em tempo real com AllMySat

Download on the App Store